Current Version              Previous Version:    01  02  03  04  05  06  07  08  09  10  11  12  13  14  15  16  17  18  19  20  21  22  23  24  25  26  27  28  29  30  
   31  32  33  34  35  36  37  38  39  40  41  42  43  44  45  46  47  48  49  50  51  52  53  54  55  56  57  58  59  60  

[Printable]
796
ASUS44 KFWD 260003
RWRTX
NORTH TEXAS HOURLY WEATHER ROUNDUP
NATIONAL WEATHER SERVICE FORT WORTH TX
700 PM CDT SAT OCT 25 2014

NOTE: "FAIR" INDICATES FEW OR NO CLOUDS BELOW 12,000 FEET WITH NO
SIGNIFICANT WEATHER AND/OR OBSTRUCTIONS TO VISIBILITY.

TXZ118-119-260100-
DALLAS/FORT WORTH METROPLEX

CITY           SKY/WX    TMP DP  RH WIND       PRES   REMARKS
DFW AIRPORT    CLEAR     80  59  48 S7        30.04S
6HR MIN TEMP:  80; 6HR MAX TEMP:  88;

DALLAS LOVE    CLEAR     83  59  44 S6        30.04S
6HR MIN TEMP:  82; 6HR MAX TEMP:  88;

FTW MEACHAM    CLEAR     83  60  45 SE8       30.04S
6HR MIN TEMP:  83; 6HR MAX TEMP:  90;

DAL-EXECUTIVE  CLEAR     82  60  47 S3        30.05S
6HR MIN TEMP:  82; 6HR MAX TEMP:  90;

FTW-ALLIANCE   CLEAR     78  58  49 S7        30.04S
6HR MIN TEMP:  78; 6HR MAX TEMP:  89;

FTW-NAS-JRB    CLEAR     86  57  37 S6        30.08S
6HR MIN TEMP:  86; 6HR MAX TEMP:  92;

FTW-SPINKS     CLEAR     79  61  53 SE7       30.07S
ARLINGTON      CLEAR     81  59  47 SE6       30.05S
6HR MIN TEMP:  81; 6HR MAX TEMP:  89;

GRAND PRAIRIE  CLEAR     82  61  47 MISG        N/A
ADDISON        CLEAR     84  57  39 S5        30.05F
MESQUITE       CLEAR     81  59  47 SE6       30.05S
LANCASTER      CLEAR     80  58  45 CALM      30.06S
6HR MIN TEMP:  80; 6HR MAX TEMP:  88;

$$

TXZ091>094-102>105-117-120-121-131>134-260100-
NORTH CENTRAL TEXAS

CITY           SKY/WX    TMP DP  RH WIND       PRES   REMARKS
SHRMAN/DENISON CLEAR     79  65  62 S8        30.05S
6HR MIN TEMP:  78; 6HR MAX TEMP:  88;

GAINESVILLE    CLEAR     78  61  55 SE5       30.07S
6HR MIN TEMP:  78; 6HR MAX TEMP:  88;

BRIDGEPORT     CLEAR     82  59  46 S5        30.06S
6HR MIN TEMP:  82; 6HR MAX TEMP:  90;

DECATUR        CLEAR     81  56  43 S6        30.06S
6HR MIN TEMP:  81; 6HR MAX TEMP:  89;

DENTON         CLEAR     78  59  51 S7        30.04S
6HR MIN TEMP:  78; 6HR MAX TEMP:  88;

MCKINNEY       CLEAR     77  61  57 S6        30.05S
6HR MIN TEMP:  75; 6HR MAX TEMP:  87;

GREENVILLE     CLEAR     77  61  57 S5        30.06S
ROCKWALL       CLEAR     81  61  51 S5        30.04S
6HR MIN TEMP:  81; 6HR MAX TEMP:  87;

TERRELL        CLEAR     80  63  55 S3        30.06S
6HR MIN TEMP:  80; 6HR MAX TEMP:  87;

WAXAHACHIE     CLEAR     80  60  49 CALM      30.07S
6HR MIN TEMP:  80; 6HR MAX TEMP:  88;

CLEBURNE       CLEAR     81  61  50 SE6       30.08S
GRANBURY       CLEAR     82  58  43 S5        30.06S
6HR MIN TEMP:  82; 6HR MAX TEMP:  91;

$$

TXZ083>090-098>101-113>116-127>130-139>142-154-155-260100-
WESTERN NORTH TEXAS

CITY           SKY/WX    TMP DP  RH WIND       PRES   REMARKS
WICHITA FALLS  CLEAR     80  56  43 S9        30.01F
6HR MIN TEMP:  80; 6HR MAX TEMP:  91;

WF-KICKAPOO    CLEAR     80  54  40 S5        30.04S
6HR MIN TEMP:  80; 6HR MAX TEMP:  91;

ABILENE        CLEAR     82  49  31 S7        30.08S
6HR MIN TEMP:  82; 6HR MAX TEMP:  89;

ABILENE-DYESS  CLEAR     80  53  38 S6        30.06F
6HR MIN TEMP:  80; 6HR MAX TEMP:  89;

MINERAL WELLS  CLEAR     81  55  40 S7        30.04S
6HR MIN TEMP:  81; 6HR MAX TEMP:  91;

STEPHENVILLE   CLEAR     80  56  44 CALM      30.10S
6HR MIN TEMP:  80; 6HR MAX TEMP:  87;

COMANCHE       CLEAR     81  56  42 S5        30.08S
6HR MIN TEMP:  81; 6HR MAX TEMP:  88;

COLEMAN        CLEAR     82  54  37 S6        30.08S
6HR MIN TEMP:  82; 6HR MAX TEMP:  89;

BRADY          CLEAR     81  54  39 SE6       30.09S
$$

TXZ143>147-156>162-174-175-260100-
CENTRAL TEXAS

CITY           SKY/WX    TMP DP  RH WIND       PRES   REMARKS
WACO           CLEAR     77  62  59 S6        30.06S
6HR MIN TEMP:  77; 6HR MAX TEMP:  87;

WACO-TSTC      CLEAR     77  63  61 SE3       30.06S
WACO-MCGREGOR  CLEAR     81  55  41 S6        30.08S
6HR MIN TEMP:  81; 6HR MAX TEMP:  90;

HILLSBORO      CLEAR     81  57  43 SE6       30.07S
6HR MIN TEMP:  81; 6HR MAX TEMP:  88;

CORSICANA      CLEAR     79  62  56 SE5       30.07F
6HR MIN TEMP:  79; 6HR MAX TEMP:  87;

MEXIA          CLEAR     77  62  59 S3        30.07S
6HR MIN TEMP:  77; 6HR MAX TEMP:  85;

HEARNE         CLEAR     79  62  56 CALM      30.08S HAZE
6HR MIN TEMP:  78; 6HR MAX TEMP:  86;

CAMERON        CLEAR     79  62  57 S5        30.08S
6HR MIN TEMP:  79; 6HR MAX TEMP:  87;

TEMPLE         CLEAR     77  57  50 S8        30.07S
6HR MIN TEMP:  77; 6HR MAX TEMP:  86;

KILLEEN        CLEAR     79  58  49 SE8       30.08S
6HR MIN TEMP:  79; 6HR MAX TEMP:  86;

KILLEEN-SKYLRK CLEAR     81  57  44 SE6       30.07S
6HR MIN TEMP:  81; 6HR MAX TEMP:  88;

FORT HOOD      CLEAR     82  59  45 SE3       30.08S
6HR MIN TEMP:  82; 6HR MAX TEMP:  90;

GATESVILLE     CLEAR     81  61  50 CALM      30.10R
HAMILTON       CLEAR     78  57  48 S6        30.09S
6HR MIN TEMP:  78; 6HR MAX TEMP:  88;

LAMPASAS       CLEAR     78  60  52 CALM      30.08S
6HR MIN TEMP:  78; 6HR MAX TEMP:  86;

$$

TXZ095>097-106>112-122>126-135>138-148>153-164>167-260100-
EAST TEXAS

CITY           SKY/WX    TMP DP  RH WIND       PRES   REMARKS
PARIS          CLEAR     77  59  53 S6        30.05S
6HR MIN TEMP:  77; 6HR MAX TEMP:  86;

SULPHUR SPRNGS CLEAR     80  62  53 S5        30.07S
6HR MIN TEMP:  80; 6HR MAX TEMP:  87;

MOUNT PLEASANT CLEAR     77  65  66 CALM      30.07S
6HR MIN TEMP:  77; 6HR MAX TEMP:  85;

MINEOLA        CLEAR     75  66  73 S3        30.07S
TYLER          CLEAR     76  64  66 S3        30.07S
6HR MIN TEMP:  75; 6HR MAX TEMP:  86;

LONGVIEW       CLEAR     73  66  78 CALM      30.07S
6HR MIN TEMP:  73; 6HR MAX TEMP:  84;

MARSHALL       CLEAR     74  67  80 CALM      30.09S
6HR MIN TEMP:  74; 6HR MAX TEMP:  86;

ATHENS         CLEAR     73  64  73 CALM      30.07S
PALESTINE      CLEAR     76  67  74 CALM      30.09S
JACKSONVILLE   CLEAR     77  64  64 CALM      30.11S
HENDERSON      CLEAR     71  65  80 CALM      30.09S
6HR MIN TEMP:  71; 6HR MAX TEMP:  84;

NACOGDOCHES    CLEAR     70  64  83 CALM      30.09S
6HR MIN TEMP:  70; 6HR MAX TEMP:  82;

LUFKIN         CLEAR     75  65  70 CALM      30.09S
6HR MIN TEMP:  75; 6HR MAX TEMP:  87;

$$

SUPPLEMENTAL OBSERVATIONS (CENTRAL)

CITY           SKY/WX    TMP DP  RH WIND       PRES   REMARKS
$$

SUPPLEMENTAL OBSERVATIONS (WEST)

CITY           SKY/WX    TMP DP  RH WIND       PRES   REMARKS
$$

SUPPLEMENTAL OBSERVATIONS (EAST)

CITY           SKY/WX    TMP DP  RH WIND       PRES   REMARKS
$$

SUPPLEMENTAL OBSERVATIONS ARE A COLLECTION OF AUTOMATED INSTRUMENTS
THAT ARE MAINTAINED BY A VARIETY OF FEDERAL AND STATE AGENCIES.
CERTAIN ELEMENTS...SUCH AS HUMIDITY VALUES AND SUSTAINED WIND
SPEEDS...MAY BE APPROXIMATED.